Precipitable_Water
0.49 0.49 0.48 0.47 0.46 0.45 0.45 0.46 0.46 0.45 0.46 0.46 0.46 0.46 0.46 0.46 0.46 0.47 0.46 0.46 0.45 0.45 0.46 0.45 0.45 0.47 0.46 0.46 0.47 0.46 0.42 0.36 0.32 0.30 0.27 0.38 0.42 0.48 0.47 0.49 0.46 0.45 0.36 0.31 0.28 0.25 0.22 0.23 0.24 0.25 0.26 0.25 0.23 0.27 0.27 0.27 0.23 0.20 0.20 0.14 0.13 0.15 0.12 0.16 0.16 0.19 0.25 0.22 0.23 0.24 0.25 0.24 0.24 0.28 0.30 0.32 0.30 0.29 0.30 0.31 0.34 0.38 0.38 0.41 0.43 0.45 0.46 0.48
0.48 0.48 0.47 0.46 0.45 0.46 0.45 0.46 0.47 0.47 0.47 0.48 0.48 0.48 0.48 0.47 0.48 0.47 0.48 0.48 0.47 0.47 0.47 0.47 0.47 0.46 0.47 0.47 0.47 0.46 0.40 0.35 0.30 0.29 0.30 0.44 0.49 0.51 0.49 0.48 0.47 0.41 0.35 0.30 0.27 0.24 0.22 0.22 0.23 0.23 0.22 0.22 0.24 0.21 0.27 0.24 0.24 0.21 0.15 0.12 0.16 0.16 0.17 0.17 0.20 0.21 0.21 0.22 0.24 0.26 0.27 0.27 0.27 0.28 0.32 0.26 0.28 0.31 0.30 0.33 0.35 0.35 0.39 0.43 0.44 0.45 0.46 0.47
0.49 0.48 0.47 0.48 0.47 0.46 0.47 0.47 0.48 0.49 0.49 0.49 0.50 0.50 0.49 0.48 0.48 0.49 0.49 0.50 0.49 0.49 0.49 0.48 0.48 0.49 0.46 0.47 0.48 0.46 0.39 0.33 0.30 0.27 0.33 0.48 0.51 0.50 0.48 0.48 0.43 0.41 0.36 0.32 0.29 0.28 0.25 0.24 0.25 0.22 0.22 0.20 0.22 0.24 0.21 0.24 0.22 0.19 0.18 0.18 0.19 0.18 0.17 0.20 0.21 0.22 0.25 0.26 0.25 0.27 0.28 0.27 0.29 0.29 0.31 0.27 0.28 0.30 0.30 0.31 0.33 0.34 0.36 0.40 0.42 0.44 0.45 0.47
0.51 0.51 0.50 0.49 0.50 0.49 0.48 0.48 0.49 0.49 0.51 0.51 0.51 0.52 0.52 0.51 0.51 0.52 0.52 0.53 0.50 0.52 0.51 0.51 0.50 0.49 0.49 0.47 0.49 0.47 0.41 0.28 0.24 0.30 0.40 0.48 0.50 0.52 0.48 0.45 0.43 0.40 0.39 0.34 0.34 0.31 0.30 0.28 0.27 0.25 0.24 0.22 0.25 0.22 0.24 0.29 0.26 0.26 0.19 0.19 0.21 0.20 0.20 0.23 0.25 0.27 0.28 0.29 0.29 0.28 0.29 0.28 0.31 0.31 0.30 0.30 0.28 0.29 0.32 0.35 0.34 0.35 0.37 0.39 0.41 0.43 0.46 0.47
0.52 0.53 0.52 0.51 0.52 0.51 0.51 0.50 0.50 0.51 0.51 0.52 0.53 0.54 0.53 0.54 0.53 0.53 0.55 0.54 0.55 0.53 0.53 0.53 0.51 0.51 0.50 0.50 0.47 0.46 0.31 0.18 0.27 0.33 0.44 0.48 0.52 0.50 0.47 0.43 0.41 0.41 0.40 0.36 0.37 0.36 0.34 0.30 0.28 0.27 0.26 0.24 0.26 0.26 0.25 0.27 0.27 0.24 0.24 0.26 0.25 0.25 0.25 0.29 0.30 0.31 0.31 0.33 0.31 0.31 0.29 0.31 0.36 0.34 0.32 0.31 0.28 0.29 0.34 0.38 0.39 0.40 0.40 0.40 0.42 0.44 0.47 0.47
0.54 0.54 0.54 0.53 0.53 0.53 0.52 0.52 0.52 0.52 0.53 0.53 0.54 0.54 0.55 0.56 0.57 0.55 0.56 0.56 0.56 0.55 0.54 0.54 0.54 0.50 0.52 0.52 0.48 0.42 0.28 0.14 0.29 0.36 0.50 0.48 0.49 0.48 0.44 0.43 0.43 0.43 0.40 0.38 0.37 0.37 0.35 0.31 0.29 0.28 0.27 0.25 0.26 0.23 0.28 0.30 0.32 0.26 0.29 0.30 0.29 0.32 0.30 0.35 0.34 0.35 0.35 0.34 0.33 0.32 0.34 0.35 0.33 0.33 0.35 0.34 0.32 0.37 0.42 0.42 0.42 0.43 0.44 0.45 0.46 0.47 0.47 0.48
0.55 0.54 0.54 0.54 0.54 0.54 0.54 0.54 0.52 0.53 0.54 0.54 0.55 0.56 0.55 0.57 0.57 0.57 0.58 0.58 0.57 0.58 0.54 0.55 0.53 0.54 0.51 0.49 0.47 0.35 0.26 0.26 0.34 0.44 0.52 0.53 0.50 0.46 0.44 0.43 0.43 0.41 0.40 0.38 0.38 0.37 0.36 0.33 0.30 0.29 0.28 0.28 0.28 0.27 0.30 0.29 0.32 0.28 0.25 0.31 0.32 0.34 0.32 0.37 0.36 0.37 0.36 0.35 0.34 0.36 0.38 0.33 0.33 0.30 0.35 0.33 0.38 0.41 0.42 0.44 0.44 0.45 0.46 0.47 0.46 0.48 0.48 0.49
0.56 0.54 0.54 0.53 0.54 0.54 0.54 0.54 0.53 0.53 0.55 0.55 0.55 0.56 0.57 0.58 0.59 0.58 0.59 0.59 0.58 0.56 0.58 0.55 0.55 0.54 0.54 0.46 0.35 0.35 0.29 0.28 0.40 0.51 0.53 0.53 0.52 0.47 0.49 0.49 0.48 0.46 0.43 0.40 0.40 0.37 0.37 0.33 0.30 0.32 0.29 0.27 0.28 0.28 0.31 0.30 0.31 0.29 0.28 0.32 0.34 0.34 0.35 0.36 0.37 0.37 0.37 0.36 0.37 0.37 0.33 0.33 0.34 0.33 0.34 0.33 0.37 0.40 0.41 0.43 0.44 0.45 0.46 0.47 0.47 0.47 0.48 0.49
0.57 0.56 0.55 0.55 0.55 0.55 0.55 0.56 0.55 0.55 0.56 0.57 0.56 0.57 0.59 0.60 0.60 0.60 0.60 0.60 0.60 0.58 0.57 0.59 0.57 0.56 0.57 0.45 0.35 0.27 0.28 0.48 0.58 0.61 0.59 0.56 0.53 0.51 0.52 0.46 0.49 0.46 0.44 0.44 0.45 0.43 0.40 0.35 0.35 0.34 0.28 0.29 0.32 0.29 0.31 0.29 0.26 0.32 0.32 0.33 0.34 0.34 0.35 0.36 0.36 0.36 0.36 0.36 0.36 0.33 0.32 0.34 0.34 0.36 0.32 0.35 0.38 0.40 0.42 0.42 0.44 0.45 0.45 0.46 0.47 0.48 0.49 0.50
0.61 0.58 0.57 0.56 0.56 0.56 0.56 0.56 0.56 0.56 0.57 0.58 0.59 0.59 0.60 0.61 0.61 0.61 0.61 0.61 0.60 0.61 0.58 0.60 0.60 0.60 0.49 0.42 0.38 0.25 0.45 0.59 0.63 0.64 0.62 0.57 0.56 0.54 0.52 0.55 0.50 0.48 0.45 0.46 0.46 0.43 0.40 0.39 0.38 0.38 0.37 0.33 0.34 0.31 0.33 0.31 0.29 0.35 0.34 0.33 0.33 0.34 0.35 0.37 0.35 0.35 0.36 0.35 0.35 0.32 0.32 0.33 0.35 0.33 0.28 0.36 0.39 0.41 0.41 0.41 0.43 0.44 0.44 0.46 0.48 0.50 0.51 0.50
0.61 0.59 0.60 0.60 0.59 0.58 0.58 0.58 0.57 0.56 0.58 0.59 0.60 0.61 0.61 0.62 0.63 0.62 0.62 0.61 0.63 0.62 0.62 0.60 0.63 0.57 0.50 0.43 0.33 0.27 0.65 0.67 0.68 0.66 0.62 0.59 0.54 0.51 0.50 0.51 0.53 0.49 0.48 0.47 0.45 0.46 0.46 0.44 0.43 0.41 0.38 0.32 0.34 0.32 0.32 0.33 0.36 0.35 0.34 0.34 0.34 0.35 0.36 0.36 0.36 0.35 0.36 0.34 0.36 0.34 0.32 0.34 0.34 0.34 0.30 0.34 0.40 0.42 0.40 0.40 0.42 0.43 0.44 0.46 0.48 0.50 0.52 0.52
0.59 0.60 0.62 0.63 0.62 0.61 0.60 0.60 0.59 0.58 0.59 0.61 0.62 0.63 0.63 0.63 0.64 0.63 0.63 0.65 0.65 0.65 0.65 0.62 0.64 0.59 0.51 0.43 0.36 0.39 0.62 0.69 0.71 0.65 0.62 0.59 0.55 0.55 0.56 0.55 0.54 0.53 0.49 0.44 0.47 0.49 0.49 0.47 0.44 0.40 0.31 0.38 0.30 0.34 0.34 0.38 0.36 0.36 0.36 0.30 0.33 0.35 0.33 0.35 0.33 0.34 0.35 0.33 0.36 0.36 0.32 0.30 0.31 0.30 0.36 0.38 0.40 0.42 0.41 0.41 0.42 0.43 0.45 0.47 0.48 0.51 0.53 0.53
0.60 0.62 0.64 0.67 0.66 0.63 0.62 0.61 0.61 0.60 0.61 0.63 0.64 0.64 0.64 0.64 0.64 0.66 0.66 0.67 0.69 0.67 0.66 0.68 0.65 0.64 0.51 0.35 0.41 0.56 0.63 0.69 0.67 0.64 0.61 0.61 0.57 0.58 0.57 0.57 0.56 0.54 0.54 0.49 0.47 0.51 0.49 0.48 0.46 0.39 0.42 0.39 0.36 0.31 0.38 0.41 0.38 0.38 0.35 0.32 0.30 0.30 0.29 0.33 0.36 0.36 0.34 0.34 0.36 0.36 0.24 0.28 0.31 0.35 0.38 0.41 0.42 0.42 0.41 0.41 0.42 0.44 0.45 0.46 0.48 0.50 0.52 0.55
0.62 0.63 0.65 0.67 0.66 0.64 0.63 0.63 0.63 0.63 0.63 0.64 0.66 0.66 0.66 0.66 0.67 0.68 0.69 0.68 0.71 0.68 0.68 0.69 0.68 0.58 0.49 0.37 0.48 0.59 0.67 0.65 0.63 0.58 0.56 0.59 0.55 0.54 0.57 0.58 0.58 0.57 0.57 0.53 0.54 0.52 0.50 0.50 0.48 0.45 0.46 0.40 0.36 0.45 0.38 0.37 0.38 0.31 0.34 0.34 0.27 0.26 0.26 0.33 0.34 0.35 0.32 0.36 0.38 0.37 0.25 0.28 0.32 0.38 0.42 0.42 0.44 0.42 0.40 0.42 0.43 0.44 0.45 0.47 0.48 0.49 0.51 0.54
0.63 0.64 0.68 0.69 0.65 0.65 0.66 0.65 0.65 0.65 0.64 0.66 0.67 0.68 0.69 0.68 0.70 0.71 0.74 0.71 0.72 0.72 0.69 0.70 0.67 0.54 0.39 0.39 0.57 0.69 0.69 0.67 0.55 0.56 0.61 0.56 0.54 0.52 0.53 0.57 0.56 0.56 0.56 0.55 0.52 0.53 0.53 0.52 0.48 0.42 0.38 0.45 0.43 0.38 0.34 0.33 0.34 0.34 0.28 0.25 0.30 0.27 0.29 0.33 0.36 0.35 0.31 0.35 0.39 0.36 0.28 0.30 0.34 0.39 0.43 0.46 0.45 0.45 0.43 0.44 0.44 0.45 0.46 0.47 0.49 0.50 0.52 0.54
0.66 0.66 0.69 0.68 0.69 0.70 0.69 0.68 0.67 0.66 0.66 0.68 0.68 0.69 0.72 0.75 0.73 0.74 0.74 0.72 0.71 0.72 0.75 0.60 0.58 0.51 0.41 0.34 0.47 0.73 0.61 0.47 0.50 0.64 0.65 0.62 0.60 0.53 0.57 0.56 0.57 0.56 0.55 0.53 0.56 0.54 0.54 0.52 0.43 0.43 0.40 0.42 0.38 0.34 0.32 0.31 0.31 0.32 0.28 0.25 0.26 0.30 0.30 0.31 0.34 0.38 0.38 0.37 0.39 0.36 0.31 0.33 0.34 0.41 0.45 0.48 0.46 0.46 0.45 0.46 0.47 0.48 0.49 0.50 0.51 0.52 0.54 0.55
0.69 0.71 0.72 0.75 0.74 0.72 0.71 0.71 0.69 0.68 0.69 0.70 0.73 0.75 0.78 0.77 0.78 0.76 0.76 0.75 0.74 0.74 0.68 0.55 0.56 0.56 0.33 0.52 0.64 0.46 0.44 0.54 0.66 0.64 0.63 0.66 0.63 0.60 0.56 0.54 0.51 0.52 0.55 0.55 0.55 0.54 0.52 0.46 0.47 0.45 0.44 0.37 0.37 0.35 0.29 0.26 0.26 0.30 0.33 0.28 0.29 0.27 0.30 0.29 0.35 0.38 0.39 0.38 0.35 0.39 0.36 0.37 0.39 0.42 0.45 0.49 0.49 0.48 0.47 0.47 0.49 0.50 0.51 0.52 0.53 0.54 0.54 0.55
0.73 0.74 0.76 0.76 0.76 0.76 0.76 0.73 0.72 0.69 0.72 0.74 0.75 0.77 0.75 0.78 0.80 0.75 0.71 0.72 0.75 0.67 0.65 0.66 0.60 0.51 0.40 0.51 0.38 0.42 0.57 0.56 0.61 0.64 0.65 0.67 0.66 0.61 0.58 0.53 0.54 0.53 0.53 0.50 0.54 0.48 0.50 0.44 0.46 0.37 0.38 0.37 0.36 0.33 0.28 0.24 0.28 0.30 0.32 0.30 0.30 0.32 0.31 0.30 0.31 0.35 0.39 0.41 0.39 0.39 0.38 0.40 0.42 0.46 0.48 0.49 0.52 0.50 0.50 0.51 0.51 0.52 0.53 0.54 0.54 0.54 0.54 0.54
0.76 0.76 0.78 0.77 0.79 0.80 0.81 0.80 0.77 0.77 0.78 0.80 0.82 0.85 0.82 0.82 0.79 0.77 0.65 0.65 0.53 0.45 0.38 0.41 0.41 0.29 0.26 0.46 0.55 0.54 0.57 0.62 0.68 0.67 0.61 0.65 0.68 0.68 0.65 0.63 0.59 0.53 0.48 0.46 0.47 0.49 0.49 0.46 0.45 0.38 0.33 0.34 0.35 0.36 0.34 0.34 0.35 0.33 0.34 0.34 0.34 0.31 0.32 0.32 0.36 0.40 0.41 0.38 0.38 0.40 0.39 0.41 0.44 0.46 0.49 0.52 0.53 0.52 0.52 0.53 0.53 0.53 0.54 0.54 0.54 0.54 0.54 0.54
0.77 0.77 0.75 0.78 0.82 0.83 0.83 0.83 0.81 0.82 0.87 0.82 0.80 0.75 0.70 0.54 0.55 0.49 0.62 0.61 0.47 0.43 0.46 0.53 0.52 0.49 0.51 0.52 0.52 0.62 0.71 0.73 0.60 0.65 0.68 0.70 0.66 0.64 0.62 0.62 0.59 0.58 0.51 0.45 0.49 0.51 0.54 0.42 0.38 0.37 0.38 0.41 0.43 0.42 0.41 0.41 0.40 0.39 0.39 0.37 0.36 0.36 0.36 0.40 0.40 0.42 0.44 0.41 0.40 0.42 0.43 0.44 0.46 0.47 0.49 0.52 0.53 0.52 0.52 0.52 0.52 0.53 0.53 0.53 0.53 0.53 0.54 0.54
0.83 0.83 0.81 0.83 0.84 0.83 0.84 0.83 0.82 0.85 0.85 0.86 0.80 0.64 0.46 0.45 0.40 0.38 0.54 0.53 0.55 0.55 0.50 0.53 0.53 0.50 0.49 0.58 0.60 0.59 0.55 0.59 0.66 0.66 0.70 0.79 0.72 0.64 0.58 0.60 0.56 0.50 0.52 0.54 0.52 0.55 0.54 0.42 0.40 0.43 0.45 0.47 0.47 0.47 0.46 0.44 0.44 0.42 0.41 0.39 0.38 0.39 0.36 0.42 0.41 0.44 0.47 0.42 0.41 0.46 0.44 0.44 0.46 0.49 0.50 0.53 0.52 0.50 0.50 0.51 0.51 0.51 0.51 0.52 0.53 0.53 0.53 0.52
0.86 0.87 0.88 0.89 0.91 0.90 0.88 0.86 0.84 0.87 0.88 0.85 0.75 0.57 0.59 0.62 0.69 0.72 0.61 0.43 0.58 0.61 0.59 0.55 0.60 0.53 0.60 0.59 0.63 0.66 0.64 0.55 0.59 0.67 0.76 0.74 0.66 0.55 0.56 0.55 0.51 0.47 0.54 0.54 0.54 0.49 0.46 0.40 0.44 0.49 0.51 0.50 0.49 0.48 0.47 0.45 0.43 0.43 0.41 0.40 0.39 0.39 0.43 0.46 0.45 0.48 0.49 0.46 0.42 0.46 0.42 0.43 0.46 0.47 0.51 0.51 0.50 0.51 0.52 0.51 0.50 0.50 0.50 0.51 0.51 0.52 0.51 0.51
0.90 0.90 0.91 0.94 0.95 0.95 0.92 0.90 0.88 0.91 0.84 0.74 0.64 0.63 0.61 0.75 0.81 0.81 0.71 0.56 0.48 0.59 0.58 0.57 0.55 0.55 0.56 0.65 0.66 0.69 0.54 0.50 0.49 0.60 0.67 0.72 0.63 0.60 0.58 0.53 0.51 0.52 0.53 0.52 0.45 0.45 0.40 0.43 0.49 0.53 0.52 0.50 0.48 0.48 0.47 0.45 0.45 0.42 0.41 0.39 0.36 0.42 0.41 0.37 0.46 0.49 0.50 0.48 0.44 0.44 0.43 0.44 0.48 0.49 0.50 0.52 0.51 0.52 0.53 0.53 0.53 0.52 0.50 0.50 0.50 0.50 0.49 0.49
0.96 0.96 0.98 0.98 0.97 0.95 0.94 0.91 0.93 0.88 0.80 0.76 0.71 0.69 0.81 0.85 0.83 0.79 0.61 0.46 0.44 0.57 0.61 0.63 0.63 0.62 0.60 0.58 0.68 0.64 0.56 0.56 0.59 0.57 0.75 0.70 0.60 0.66 0.59 0.54 0.52 0.51 0.48 0.49 0.48 0.45 0.42 0.49 0.54 0.54 0.53 0.50 0.47 0.47 0.46 0.44 0.41 0.44 0.43 0.42 0.41 0.42 0.45 0.45 0.45 0.48 0.51 0.52 0.52 0.48 0.44 0.42 0.46 0.44 0.46 0.50 0.53 0.51 0.51 0.52 0.51 0.52 0.52 0.52 0.52 0.51 0.50 0.48
1.02 1.03 1.04 1.03 1.00 0.98 0.94 0.94 0.82 0.77 0.83 0.79 0.73 0.84 0.91 0.92 0.88 0.85 0.62 0.54 0.53 0.52 0.75 0.69 0.73 0.68 0.71 0.85 0.78 0.63 0.63 0.65 0.64 0.70 0.74 0.71 0.63 0.61 0.55 0.60 0.55 0.47 0.49 0.51 0.50 0.47 0.47 0.54 0.57 0.53 0.52 0.51 0.48 0.45 0.46 0.46 0.41 0.43 0.46 0.45 0.46 0.47 0.47 0.49 0.49 0.47 0.44 0.43 0.48 0.46 0.35 0.34 0.42 0.44 0.44 0.47 0.48 0.46 0.49 0.47 0.46 0.48 0.49 0.49 0.48 0.48 0.48 0.48
1.08 1.08 1.07 1.05 1.03 0.99 1.01 0.79 0.75 0.84 0.78 0.69 0.75 0.85 0.90 0.95 1.00 0.91 0.71 0.52 0.38 0.53 0.66 0.49 0.76 0.61 0.87 0.68 0.74 0.71 0.70 0.54 0.69 0.73 0.75 0.75 0.74 0.64 0.59 0.53 0.55 0.45 0.50 0.50 0.48 0.49 0.49 0.55 0.56 0.52 0.52 0.51 0.49 0.47 0.49 0.50 0.43 0.41 0.44 0.52 0.50 0.50 0.51 0.51 0.49 0.46 0.38 0.35 0.44 0.50 0.35 0.30 0.40 0.39 0.42 0.43 0.43 0.43 0.45 0.45 0.45 0.46 0.47 0.47 0.47 0.47 0.46 0.45
1.15 1.12 1.11 1.08 1.04 1.03 0.82 0.65 0.86 0.87 0.68 0.69 0.86 0.95 0.95 0.95 1.09 0.95 0.60 0.47 0.37 0.52 0.49 0.67 0.65 0.68 0.82 0.73 0.74 0.75 0.45 0.47 0.73 0.76 0.72 0.77 0.65 0.75 0.54 0.50 0.54 0.56 0.57 0.55 0.50 0.42 0.53 0.52 0.54 0.54 0.53 0.51 0.48 0.45 0.50 0.50 0.45 0.41 0.53 0.54 0.53 0.51 0.50 0.50 0.49 0.47 0.43 0.49 0.49 0.47 0.44 0.34 0.33 0.37 0.42 0.41 0.40 0.40 0.41 0.42 0.43 0.45 0.46 0.46 0.46 0.46 0.45 0.44
1.22 1.19 1.16 1.12 1.08 1.03 0.86 0.91 0.87 0.76 0.72 0.89 0.95 0.99 1.02 1.03 1.07 0.96 0.59 0.35 0.30 0.61 0.51 0.61 0.66 0.81 0.76 0.75 0.78 0.63 0.59 0.65 0.53 0.62 0.72 0.74 0.72 0.63 0.59 0.52 0.49 0.50 0.54 0.53 0.37 0.52 0.53 0.50 0.51 0.51 0.51 0.49 0.46 0.50 0.54 0.54 0.47 0.49 0.57 0.57 0.53 0.53 0.52 0.52 0.50 0.46 0.46 0.43 0.37 0.42 0.45 0.35 0.31 0.38 0.44 0.43 0.37 0.37 0.38 0.39 0.42 0.44 0.45 0.45 0.45 0.44 0.45 0.45
1.25 1.24 1.21 1.17 1.14 1.10 1.11 1.00 0.92 0.80 0.93 1.03 1.01 1.03 1.06 1.09 0.97 0.71 0.55 0.34 0.53 0.52 0.83 0.55 0.82 0.70 0.66 0.71 0.63 0.62 0.59 0.59 0.46 0.56 0.68 0.70 0.71 0.62 0.50 0.54 0.56 0.54 0.56 0.54 0.46 0.53 0.56 0.56 0.55 0.55 0.52 0.47 0.53 0.56 0.57 0.56 0.47 0.54 0.58 0.58 0.57 0.57 0.55 0.54 0.50 0.47 0.45 0.40 0.32 0.38 0.42 0.32 0.30 0.36 0.38 0.41 0.37 0.35 0.37 0.40 0.42 0.44 0.44 0.44 0.43 0.44 0.45 0.45
1.29 1.27 1.26 1.23 1.18 1.10 1.06 1.09 0.97 1.06 1.05 1.08 1.08 1.09 1.11 1.00 0.79 0.52 0.42 0.30 0.52 0.41 0.57 0.62 0.57 0.50 0.60 0.49 0.50 0.54 0.48 0.51 0.55 0.59 0.61 0.58 0.61 0.67 0.63 0.68 0.60 0.56 0.52 0.56 0.54 0.55 0.57 0.62 0.64 0.58 0.53 0.56 0.56 0.57 0.58 0.58 0.57 0.60 0.59 0.56 0.54 0.54 0.53 0.53 0.51 0.48 0.43 0.33 0.33 0.41 0.43 0.38 0.28 0.32 0.35 0.36 0.35 0.37 0.40 0.42 0.43 0.43 0.43 0.43 0.43 0.44 0.44 0.44
1.34 1.33 1.31 1.28 1.09 1.08 1.06 0.91 0.99 1.13 1.12 1.13 1.13 1.09 1.00 0.85 0.59 0.46 0.34 0.37 0.53 0.53 0.59 0.55 0.47 0.59 0.49 0.43 0.39 0.51 0.52 0.51 0.53 0.56 0.53 0.61 0.57 0.63 0.61 0.59 0.66 0.56 0.54 0.53 0.51 0.54 0.56 0.57 0.56 0.58 0.62 0.61 0.60 0.54 0.59 0.60 0.60 0.59 0.54 0.52 0.51 0.47 0.51 0.48 0.45 0.47 0.35 0.29 0.37 0.42 0.41 0.41 0.27 0.29 0.37 0.40 0.42 0.42 0.41 0.38 0.38 0.38 0.40 0.41 0.43 0.43 0.44 0.44
1.38 1.37 1.36 1.29 1.25 1.25 0.98 0.89 1.07 1.16 1.15 1.18 1.11 0.95 0.81 0.54 0.63 0.41 0.34 0.56 0.38 0.45 0.46 0.46 0.52 0.50 0.47 0.50 0.46 0.45 0.46 0.51 0.56 0.55 0.51 0.53 0.52 0.52 0.53 0.46 0.51 0.42 0.40 0.42 0.40 0.51 0.47 0.48 0.55 0.56 0.62 0.59 0.54 0.52 0.53 0.57 0.58 0.57 0.54 0.51 0.42 0.38 0.38 0.33 0.38 0.31 0.32 0.30 0.36 0.41 0.42 0.36 0.32 0.34 0.37 0.40 0.41 0.40 0.41 0.39 0.38 0.39 0.40 0.42 0.43 0.43 0.43 0.43
1.38 1.38 1.38 1.36 1.33 1.20 1.17 1.23 1.22 1.20 1.21 1.17 1.03 0.90 0.67 0.50 0.36 0.43 0.43 0.47 0.40 0.51 0.48 0.55 0.49 0.51 0.50 0.49 0.46 0.50 0.57 0.46 0.56 0.57 0.59 0.58 0.55 0.54 0.59 0.57 0.57 0.50 0.37 0.44 0.43 0.42 0.43 0.52 0.51 0.53 0.56 0.59 0.58 0.46 0.44 0.46 0.51 0.51 0.48 0.45 0.40 0.34 0.31 0.27 0.31 0.34 0.33 0.36 0.39 0.38 0.41 0.31 0.33 0.36 0.40 0.38 0.41 0.42 0.41 0.42 0.42 0.41 0.41 0.42 0.42 0.43 0.42 0.42
1.38 1.37 1.30 1.33 1.31 1.29 1.28 1.29 1.24 1.25 1.16 1.13 0.94 0.77 0.63 0.44 0.37 0.48 0.47 0.48 0.46 0.54 0.54 0.51 0.53 0.56 0.54 0.45 0.49 0.53 0.47 0.57 0.56 0.56 0.60 0.55 0.55 0.49 0.54 0.59 0.60 0.54 0.52 0.49 0.40 0.40 0.33 0.34 0.42 0.49 0.43 0.56 0.55 0.53 0.52 0.50 0.50 0.50 0.56 0.50 0.43 0.40 0.33 0.27 0.29 0.26 0.27 0.29 0.32 0.38 0.32 0.26 0.26 0.29 0.40 0.41 0.42 0.43 0.43 0.43 0.44 0.44 0.44 0.44 0.43 0.42 0.42 0.41
1.39 1.35 1.32 1.31 1.30 1.32 1.31 1.31 1.25 1.25 1.16 1.02 0.81 0.65 0.46 0.41 0.43 0.41 0.44 0.47 0.51 0.51 0.47 0.55 0.50 0.50 0.50 0.53 0.54 0.57 0.57 0.50 0.61 0.59 0.57 0.54 0.49 0.51 0.49 0.51 0.59 0.60 0.56 0.44 0.46 0.45 0.38 0.38 0.48 0.56 0.57 0.59 0.54 0.61 0.62 0.55 0.52 0.54 0.56 0.56 0.45 0.40 0.48 0.33 0.33 0.31 0.29 0.28 0.27 0.28 0.28 0.31 0.30 0.40 0.43 0.44 0.43 0.42 0.43 0.43 0.44 0.43 0.43 0.43 0.41 0.40 0.40 0.40
1.35 1.29 1.33 1.20 1.19 1.25 1.33 1.32 1.28 1.22 1.08 0.90 0.68 0.54 0.47 0.45 0.39 0.51 0.50 0.62 0.56 0.48 0.49 0.53 0.54 0.47 0.47 0.50 0.54 0.53 0.64 0.55 0.59 0.59 0.56 0.56 0.55 0.51 0.56 0.57 0.55 0.59 0.52 0.44 0.48 0.39 0.43 0.37 0.50 0.55 0.60 0.57 0.58 0.62 0.60 0.60 0.39 0.47 0.51 0.40 0.44 0.53 0.47 0.37 0.36 0.35 0.33 0.29 0.24 0.31 0.29 0.31 0.37 0.37 0.38 0.40 0.41 0.40 0.41 0.41 0.42 0.42 0.42 0.41 0.40 0.40 0.40 0.39
1.19 1.23 1.09 1.17 1.19 1.30 1.33 1.32 1.28 1.16 1.03 0.83 0.62 0.49 0.54 0.54 0.60 0.57 0.62 0.58 0.57 0.56 0.51 0.41 0.45 0.44 0.44 0.44 0.48 0.53 0.58 0.62 0.58 0.57 0.49 0.58 0.51 0.54 0.54 0.57 0.63 0.61 0.61 0.55 0.49 0.54 0.40 0.40 0.51 0.51 0.48 0.57 0.61 0.62 0.61 0.60 0.60 0.50 0.41 0.45 0.55 0.56 0.51 0.40 0.30 0.32 0.29 0.24 0.23 0.27 0.23 0.25 0.26 0.22 0.36 0.37 0.38 0.38 0.39 0.40 0.41 0.42 0.42 0.39 0.39 0.38 0.38 0.38
1.12 1.12 1.09 1.10 1.19 1.33 1.34 1.33 1.24 1.10 0.93 0.74 0.57 0.57 0.65 0.55 0.67 0.63 0.68 0.63 0.60 0.60 0.53 0.49 0.51 0.56 0.48 0.49 0.50 0.54 0.59 0.53 0.52 0.55 0.48 0.54 0.44 0.59 0.56 0.56 0.63 0.61 0.62 0.66 0.54 0.52 0.54 0.40 0.44 0.52 0.52 0.55 0.61 0.60 0.54 0.59 0.60 0.51 0.46 0.57 0.43 0.35 0.34 0.39 0.36 0.24 0.23 0.22 0.22 0.24 0.25 0.25 0.26 0.26 0.31 0.32 0.33 0.35 0.37 0.39 0.39 0.39 0.38 0.38 0.38 0.38 0.38 0.38
1.14 1.06 0.88 1.05 1.25 1.33 1.32 1.32 1.17 0.98 0.79 0.62 0.58 0.54 0.63 0.62 0.71 0.68 0.72 0.71 0.69 0.64 0.57 0.57 0.53 0.58 0.58 0.53 0.55 0.58 0.55 0.47 0.54 0.52 0.48 0.52 0.45 0.56 0.56 0.60 0.57 0.64 0.67 0.66 0.57 0.56 0.56 0.41 0.41 0.52 0.51 0.54 0.55 0.52 0.38 0.44 0.54 0.57 0.56 0.49 0.53 0.44 0.38 0.34 0.33 0.31 0.29 0.21 0.21 0.19 0.23 0.19 0.27 0.29 0.31 0.32 0.34 0.36 0.37 0.37 0.36 0.36 0.36 0.37 0.37 0.37 0.36 0.35
1.00 0.87 0.80 1.10 1.23 1.30 1.33 1.23 1.00 0.88 0.72 0.55 0.56 0.58 0.67 0.62 0.68 0.73 0.75 0.71 0.66 0.62 0.59 0.56 0.61 0.54 0.56 0.56 0.57 0.52 0.57 0.55 0.51 0.52 0.52 0.53 0.51 0.62 0.57 0.64 0.58 0.62 0.67 0.69 0.60 0.63 0.51 0.54 0.37 0.45 0.55 0.52 0.40 0.45 0.41 0.44 0.41 0.43 0.43 0.40 0.43 0.42 0.45 0.41 0.38 0.32 0.27 0.23 0.22 0.20 0.18 0.21 0.28 0.33 0.33 0.33 0.35 0.36 0.35 0.33 0.35 0.36 0.37 0.37 0.37 0.36 0.35 0.34
1.03 0.84 0.81 1.15 1.22 1.29 1.25 1.04 0.81 0.68 0.64 0.66 0.66 0.62 0.66 0.65 0.72 0.75 0.77 0.80 0.73 0.78 0.66 0.62 0.61 0.55 0.56 0.54 0.53 0.59 0.55 0.56 0.55 0.52 0.52 0.52 0.52 0.46 0.60 0.61 0.65 0.61 0.68 0.66 0.62 0.61 0.53 0.50 0.41 0.44 0.43 0.41 0.43 0.52 0.51 0.51 0.49 0.45 0.42 0.38 0.40 0.38 0.34 0.30 0.26 0.36 0.32 0.27 0.22 0.22 0.18 0.24 0.31 0.36 0.34 0.34 0.34 0.34 0.34 0.35 0.35 0.36 0.37 0.37 0.36 0.36 0.35 0.34
0.90 0.68 0.77 1.15 1.23 1.24 1.00 0.73 0.71 0.77 0.69 0.62 0.58 0.63 0.62 0.75 0.71 0.72 0.75 0.78 0.77 0.71 0.79 0.70 0.69 0.64 0.62 0.59 0.59 0.58 0.57 0.54 0.56 0.54 0.56 0.51 0.57 0.56 0.60 0.68 0.67 0.69 0.61 0.55 0.56 0.63 0.62 0.54 0.48 0.41 0.41 0.43 0.49 0.53 0.57 0.56 0.54 0.51 0.48 0.42 0.45 0.43 0.40 0.33 0.25 0.28 0.32 0.31 0.32 0.28 0.23 0.22 0.34 0.37 0.36 0.35 0.35 0.36 0.37 0.38 0.37 0.38 0.38 0.37 0.36 0.36 0.36 0.36
0.84 0.76 0.98 1.13 1.20 1.12 0.88 0.68 0.71 0.69 0.64 0.68 0.78 0.75 0.79 0.74 0.70 0.74 0.69 0.73 0.69 0.75 0.71 0.68 0.65 0.63 0.67 0.63 0.62 0.60 0.61 0.55 0.56 0.53 0.56 0.58 0.58 0.63 0.65 0.66 0.68 0.66 0.66 0.61 0.63 0.64 0.65 0.53 0.46 0.45 0.49 0.51 0.54 0.55 0.56 0.56 0.54 0.48 0.47 0.48 0.45 0.39 0.39 0.37 0.35 0.36 0.31 0.31 0.28 0.28 0.24 0.25 0.33 0.39 0.38 0.36 0.38 0.39 0.40 0.40 0.39 0.39 0.38 0.36 0.35 0.35 0.35 0.36
0.84 0.82 0.88 1.09 1.17 1.08 0.79 0.56 0.55 0.60 0.63 0.71 0.72 0.70 0.80 0.74 0.71 0.68 0.67 0.70 0.68 0.67 0.64 0.64 0.69 0.71 0.63 0.71 0.66 0.59 0.63 0.50 0.59 0.57 0.55 0.60 0.57 0.68 0.65 0.66 0.68 0.62 0.61 0.59 0.55 0.63 0.51 0.52 0.48 0.41 0.40 0.41 0.45 0.48 0.48 0.52 0.50 0.44 0.42 0.46 0.47 0.47 0.45 0.43 0.42 0.40 0.32 0.30 0.30 0.28 0.20 0.25 0.33 0.38 0.39 0.39 0.39 0.38 0.39 0.40 0.40 0.38 0.37 0.35 0.36 0.37 0.38 0.38
0.81 0.86 0.86 0.94 1.05 0.97 0.68 0.71 0.64 0.60 0.61 0.62 0.64 0.63 0.66 0.69 0.75 0.73 0.71 0.69 0.74 0.71 0.68 0.64 0.67 0.70 0.67 0.71 0.65 0.66 0.66 0.59 0.53 0.62 0.60 0.59 0.59 0.68 0.66 0.65 0.68 0.63 0.67 0.68 0.66 0.70 0.55 0.51 0.48 0.38 0.32 0.29 0.27 0.28 0.30 0.35 0.39 0.44 0.46 0.46 0.47 0.45 0.44 0.41 0.35 0.36 0.30 0.30 0.33 0.29 0.25 0.34 0.37 0.38 0.38 0.38 0.38 0.38 0.40 0.40 0.40 0.40 0.38 0.38 0.38 0.39 0.39 0.39
0.71 0.56 0.72 0.78 0.87 0.83 0.81 0.83 0.75 0.67 0.63 0.62 0.59 0.63 0.66 0.61 0.69 0.75 0.76 0.72 0.76 0.74 0.73 0.70 0.72 0.72 0.65 0.64 0.60 0.59 0.60 0.66 0.59 0.55 0.57 0.55 0.59 0.64 0.67 0.69 0.67 0.65 0.66 0.68 0.67 0.65 0.54 0.55 0.53 0.47 0.41 0.37 0.39 0.41 0.46 0.47 0.44 0.40 0.41 0.44 0.44 0.47 0.48 0.46 0.43 0.37 0.31 0.32 0.31 0.30 0.31 0.34 0.35 0.37 0.38 0.39 0.40 0.41 0.40 0.40 0.39 0.38 0.39 0.40 0.40 0.40 0.39 0.40
0.76 0.62 0.62 0.57 0.73 0.74 0.69 0.76 0.70 0.70 0.62 0.67 0.56 0.62 0.58 0.61 0.64 0.68 0.78 0.64 0.74 0.72 0.70 0.69 0.67 0.61 0.60 0.60 0.56 0.56 0.61 0.60 0.64 0.60 0.56 0.55 0.60 0.63 0.68 0.67 0.67 0.67 0.67 0.65 0.67 0.63 0.55 0.49 0.50 0.50 0.49 0.49 0.49 0.47 0.48 0.47 0.42 0.43 0.43 0.42 0.45 0.45 0.46 0.44 0.39 0.34 0.39 0.36 0.28 0.31 0.37 0.34 0.35 0.39 0.41 0.42 0.44 0.44 0.43 0.42 0.41 0.40 0.41 0.40 0.41 0.41 0.41 0.42
0.59 0.68 0.71 0.74 0.61 0.54 0.56 0.59 0.67 0.66 0.69 0.69 0.60 0.64 0.59 0.59 0.60 0.56 0.69 0.73 0.73 0.75 0.62 0.65 0.65 0.64 0.62 0.59 0.58 0.52 0.55 0.56 0.57 0.52 0.57 0.59 0.57 0.61 0.61 0.66 0.64 0.67 0.67 0.64 0.69 0.60 0.53 0.46 0.50 0.51 0.49 0.51 0.51 0.50 0.49 0.47 0.47 0.45 0.44 0.44 0.43 0.45 0.45 0.41 0.40 0.42 0.42 0.35 0.29 0.34 0.39 0.36 0.37 0.42 0.44 0.45 0.45 0.44 0.44 0.43 0.43 0.43 0.42 0.42 0.40 0.39 0.40 0.41
0.70 0.69 0.71 0.78 0.61 0.63 0.63 0.62 0.66 0.65 0.64 0.66 0.62 0.61 0.57 0.57 0.56 0.61 0.61 0.62 0.66 0.65 0.67 0.53 0.56 0.60 0.62 0.64 0.60 0.53 0.54 0.47 0.46 0.54 0.55 0.54 0.55 0.56 0.54 0.59 0.64 0.68 0.66 0.63 0.64 0.64 0.56 0.49 0.51 0.53 0.50 0.51 0.52 0.52 0.52 0.48 0.47 0.46 0.46 0.46 0.47 0.46 0.45 0.44 0.43 0.44 0.44 0.40 0.40 0.41 0.41 0.40 0.43 0.46 0.48 0.49 0.50 0.48 0.47 0.46 0.44 0.41 0.40 0.40 0.40 0.40 0.40 0.40
0.54 0.58 0.60 0.72 0.70 0.66 0.66 0.66 0.65 0.64 0.59 0.65 0.56 0.59 0.59 0.58 0.55 0.61 0.65 0.61 0.54 0.59 0.68 0.58 0.56 0.61 0.62 0.63 0.61 0.53 0.53 0.55 0.54 0.50 0.57 0.57 0.55 0.57 0.54 0.56 0.56 0.63 0.64 0.59 0.60 0.63 0.55 0.46 0.53 0.52 0.48 0.47 0.51 0.53 0.53 0.51 0.49 0.45 0.46 0.47 0.47 0.47 0.46 0.46 0.45 0.45 0.45 0.44 0.43 0.44 0.44 0.42 0.48 0.52 0.51 0.52 0.51 0.49 0.46 0.42 0.41 0.41 0.41 0.40 0.40 0.40 0.40 0.41
0.65 0.67 0.70 0.63 0.58 0.62 0.65 0.65 0.62 0.60 0.57 0.60 0.56 0.58 0.59 0.60 0.59 0.64 0.62 0.68 0.61 0.56 0.60 0.55 0.59 0.61 0.63 0.61 0.60 0.57 0.61 0.61 0.60 0.60 0.61 0.60 0.52 0.59 0.55 0.55 0.62 0.55 0.58 0.57 0.58 0.58 0.58 0.49 0.54 0.51 0.42 0.42 0.48 0.48 0.49 0.51 0.50 0.47 0.46 0.45 0.44 0.44 0.43 0.44 0.43 0.46 0.45 0.42 0.44 0.45 0.42 0.40 0.47 0.52 0.51 0.50 0.47 0.44 0.42 0.41 0.40 0.40 0.41 0.41 0.41 0.41 0.42 0.43
0.69 0.71 0.72 0.63 0.52 0.61 0.59 0.62 0.62 0.59 0.51 0.58 0.58 0.58 0.57 0.57 0.63 0.65 0.56 0.66 0.68 0.68 0.65 0.63 0.62 0.59 0.57 0.57 0.54 0.57 0.64 0.66 0.65 0.66 0.67 0.67 0.68 0.65 0.66 0.63 0.62 0.57 0.55 0.55 0.59 0.54 0.54 0.50 0.46 0.45 0.39 0.39 0.44 0.47 0.47 0.47 0.44 0.38 0.38 0.39 0.45 0.47 0.47 0.48 0.49 0.50 0.49 0.49 0.44 0.40 0.39 0.46 0.49 0.49 0.46 0.45 0.45 0.44 0.42 0.41 0.40 0.41 0.43 0.43 0.42 0.42 0.43 0.43
Wind_Speed
17 17 17 17 16 16 15 15 14 14 13 13 12 11 11 10 10 9 9 9 9 9 9 9 9 9 9 9 9 9 9 9 9 9 9 8 9 9 9 9 8 8 7 7 7 7 7 7 7 7 8 7 7 7 7 7 7 8 8 8 8 7 7 7 7 7 7 6 6 6 7 9 8 8 8 9 10 10 10 8 7 7 7 7 8 9 10 10
18 18 17 17 17 16 16 15 15 14 14 13 13 12 11 11 11 10 10 10 10 10 10 10 10 10 10 10 10 10 10 10 10 9 8 9 9 9 9 8 8 8 7 8 8 8 8 8 8 8 8 8 7 7 7 7 8 8 8 8 8 7 7 7 7 7 7 7 7 7 8 9 10 10 10 11 11 11 11 9 7 7 7 8 9 10 10 9
19 18 18 18 17 17 17 16 16 15 14 14 13 13 12 12 12 11 11 11 11 11 11 11 11 11 11 11 11 11 11 11 11 9 8 9 8 8 8 8 8 8 8 8 8 8 9 8 8 9 9 8 7 7 8 7 8 7 8 8 7 7 7 7 7 7 8 8 9 9 9 11 11 11 11 12 13 13 11 9 9 8 7 9 10 10 10 9
20 19 19 19 18 18 17 17 16 16 15 15 14 14 13 13 13 12 12 12 12 12 11 11 11 11 11 11 12 11 12 12 11 9 9 8 8 8 8 8 8 8 8 8 8 8 9 9 9 9 9 9 7 8 8 8 8 8 8 8 7 8 8 8 8 8 8 10 11 10 11 12 11 12 13 12 13 12 9 9 10 10 10 10 11 11 10 10
21 20 20 20 19 19 18 18 17 17 16 16 15 15 14 14 13 13 13 13 12 12 12 12 12 12 12 12 12 12 12 12 10 9 10 9 9 8 8 9 9 9 9 9 8 8 9 9 9 9 10 9 8 9 9 8 9 10 9 8 8 10 10 8 9 9 10 12 12 13 13 13 12 13 13 13 14 11 9 10 11 11 11 11 11 11 11 10
22 21 21 21 20 20 19 19 18 18 17 17 16 16 15 15 14 14 14 14 14 13 13 13 13 13 13 13 13 13 13 12 10 10 10 10 10 10 10 10 10 10 10 9 9 9 10 10 10 10 10 10 10 10 9 9 11 11 10 9 10 11 11 10 10 11 12 13 14 14 14 13 15 15 13 13 13 11 11 12 11 11 11 11 11 11 11 10
23 23 22 22 21 21 20 20 20 19 19 18 18 17 17 16 16 15 15 15 15 14 15 14 14 14 14 14 14 14 14 14 12 12 11 11 11 11 11 11 11 11 11 11 10 11 11 11 11 11 11 11 11 11 10 11 12 12 12 11 11 12 13 13 12 13 14 15 15 15 15 16 16 15 13 13 12 12 12 12 12 11 11 11 11 11 11 11
24 24 23 23 22 22 21 21 21 20 20 19 19 18 18 17 17 16 16 16 16 16 16 15 15 15 15 15 15 15 15 14 13 14 13 13 13 12 13 13 13 12 12 12 12 12 12 12 12 12 13 12 12 12 11 13 13 14 13 12 12 13 14 15 14 15 16 16 16 15 16 17 16 14 13 13 12 13 12 12 12 12 11 11 11 11 11 11
26 25 25 24 24 23 23 22 22 22 21 21 20 20 19 19 18 18 18 17 17 17 17 17 16 16 16 16 15 16 16 14 14 15 14 14 14 14 14 14 14 13 13 13 13 13 13 13 13 13 14 13 13 13 13 14 14 13 14 13 14 15 16 16 17 17 17 16 15 16 17 16 14 14 14 13 12 13 12 12 12 12 12 12 11 11 11 11
27 27 26 26 25 24 24 23 23 23 22 22 21 21 21 20 20 19 19 19 18 18 18 18 17 17 17 16 17 17 15 14 15 15 15 15 15 15 15 15 15 15 14 14 14 14 14 14 13 14 15 14 14 14 14 15 14 14 15 16 17 18 18 17 18 18 17 16 16 16 18 15 13 15 15 13 13 13 12 12 12 12 12 12 12 12 12 12
29 28 28 27 26 26 25 25 24 24 23 23 22 22 22 21 21 21 20 20 20 19 19 19 18 18 18 18 18 17 16 15 15 15 15 15 15 15 16 15 15 16 15 15 15 15 15 15 15 15 15 15 15 15 15 15 15 16 17 18 19 19 19 19 19 17 16 16 16 17 17 15 14 16 15 13 13 14 13 13 13 13 13 13 13 13 13 13
30 30 29 29 28 27 26 26 25 25 25 24 24 23 23 23 22 22 21 21 21 20 20 20 19 19 19 19 20 19 18 17 17 16 16 16 16 16 16 16 16 17 17 17 17 16 16 16 16 17 16 15 16 16 15 15 16 17 18 19 19 20 20 19 17 16 16 15 15 16 17 16 16 15 13 12 14 14 14 14 14 14 14 14 14 14 14 14
31 31 30 30 30 29 28 27 26 26 26 25 25 24 24 24 23 23 23 22 22 21 21 21 21 20 20 20 20 19 19 19 19 18 18 17 17 17 17 18 18 18 18 18 17 17 17 17 17 18 17 18 18 16 16 16 17 18 19 19 19 20 19 16 15 15 15 14 14 16 16 16 15 13 12 13 14 15 15 15 15 15 15 15 15 15 14 14
32 32 31 31 31 30 29 28 27 27 27 26 26 25 25 25 25 24 24 23 23 23 22 22 22 21 21 21 20 20 21 20 20 20 19 19 19 19 19 19 19 19 19 18 18 17 18 17 18 18 17 18 18 17 18 18 18 19 19 19 19 19 16 14 14 15 15 14 14 16 17 16 14 13 14 15 16 16 17 16 16 16 15 16 15 15 15 15
33 33 32 32 32 31 30 29 28 28 28 27 27 26 26 26 26 25 25 24 24 24 23 23 22 22 23 22 20 21 21 21 21 21 21 21 20 20 19 19 19 19 19 18 18 18 18 18 18 19 17 18 18 18 20 19 19 19 19 18 17 17 15 14 15 16 16 15 16 17 18 16 15 15 15 16 17 17 18 17 16 16 16 16 16 15 15 15
34 34 33 33 33 32 31 30 29 29 29 28 28 27 27 27 26 26 26 25 25 24 24 23 23 22 23 22 21 21 22 22 22 22 22 22 21 20 19 19 18 18 18 18 18 18 18 18 19 19 18 18 19 19 19 19 19 18 19 19 17 17 17 16 16 17 17 16 17 18 18 17 15 15 16 16 17 18 18 17 17 17 16 16 16 16 16 15
34 34 34 33 33 32 32 31 30 30 30 29 29 28 28 27 27 27 26 26 25 25 24 23 22 23 24 22 21 22 22 22 22 22 22 22 21 20 19 19 18 18 18 18 18 19 19 19 19 19 20 19 20 19 18 18 18 18 18 19 19 19 18 17 16 16 17 17 18 19 21 20 17 16 17 17 18 19 19 18 17 17 17 17 17 16 16 15
35 34 34 34 34 33 32 32 31 31 30 30 29 29 28 28 27 27 27 26 25 24 25 24 23 24 24 23 22 21 20 21 21 21 21 21 21 20 19 19 18 18 18 18 19 19 20 20 20 20 20 20 20 20 19 19 19 19 18 18 19 19 19 20 18 17 17 19 20 21 22 22 20 18 18 18 18 20 20 19 18 18 17 17 17 16 15 15
36 35 35 34 34 33 33 32 32 31 31 30 30 29 28 28 28 28 28 27 26 25 25 24 24 24 23 22 22 21 20 21 21 21 21 20 20 20 20 20 19 19 20 20 20 20 20 20 21 21 21 21 22 22 22 22 21 21 20 20 20 19 19 19 18 18 19 21 22 23 23 23 22 20 19 19 19 20 20 19 18 18 17 17 16 15 14 13
37 36 36 35 35 34 33 33 32 32 31 31 30 29 28 28 28 28 28 29 29 29 27 26 27 27 25 23 22 21 21 21 21 21 21 20 20 20 20 19 19 21 21 21 20 20 20 22 22 22 22 22 23 24 24 23 21 21 22 22 22 22 21 20 19 19 21 23 24 24 24 25 24 22 19 19 19 20 20 19 18 17 16 15 15 14 13 13
38 37 37 36 35 35 34 33 33 32 31 31 30 30 28 28 28 28 27 29 31 32 31 29 28 28 27 24 23 22 22 22 22 21 20 20 20 19 19 19 19 20 21 21 20 19 21 24 24 23 23 23 22 23 24 23 22 23 23 23 23 23 23 22 20 21 22 24 25 25 25 25 26 23 19 18 19 20 20 19 18 17 15 14 14 14 14 14
38 38 37 37 36 35 34 34 33 33 32 31 31 30 29 28 28 28 27 29 31 31 32 31 30 30 28 26 26 25 24 24 23 23 22 21 21 21 20 20 21 22 21 21 21 21 23 26 26 24 23 21 21 22 23 24 24 24 23 23 23 23 23 23 21 22 22 23 24 24 24 25 24 21 18 19 19 19 18 17 17 16 15 15 14 14 14 14
39 39 38 38 37 36 35 35 34 33 33 32 32 31 30 28 28 28 28 29 30 30 31 32 31 31 30 28 27 26 26 26 25 25 24 23 23 24 23 22 24 24 23 23 23 24 25 25 25 24 22 21 22 23 23 24 24 24 24 24 24 23 23 23 21 21 22 23 23 22 23 24 23 20 19 19 19 17 16 16 16 15 16 15 15 15 14 14
41 40 39 38 37 37 36 35 35 34 34 34 33 32 30 29 29 28 29 30 31 30 30 31 31 32 30 28 27 28 28 28 27 26 26 25 24 24 25 25 25 26 26 26 26 27 27 25 23 23 22 23 24 24 24 25 25 25 26 25 25 24 24 24 22 22 23 24 24 23 24 25 24 23 21 19 19 18 17 17 17 17 16 15 15 15 15 14
42 41 40 39 38 37 36 36 36 35 35 34 34 34 32 31 29 28 28 30 32 30 28 29 30 31 30 28 28 28 28 30 29 27 26 27 25 24 25 26 26 28 28 27 27 29 29 25 23 23 24 25 26 25 24 24 25 26 26 26 26 26 26 25 23 23 24 23 22 21 22 22 21 22 20 17 18 19 17 17 17 17 16 16 16 16 16 15
42 41 41 41 40 38 37 37 36 36 35 35 34 34 33 31 29 28 28 29 32 31 28 29 29 29 29 29 29 27 28 30 29 27 27 28 27 25 26 26 27 28 28 27 27 28 27 25 25 24 24 26 26 27 26 24 25 26 24 24 26 27 27 26 25 23 23 22 19 19 21 21 18 18 17 16 18 18 17 18 18 17 17 17 17 16 16 15
43 42 42 42 40 39 38 36 36 36 35 35 35 33 33 31 29 28 27 28 32 31 28 29 29 29 28 28 28 26 27 28 26 26 28 28 28 27 28 28 27 28 27 26 27 27 26 26 26 25 26 27 27 28 26 25 26 25 23 23 24 26 26 25 25 24 23 22 20 20 21 22 21 18 16 16 18 18 18 18 18 18 18 17 17 16 15 15
45 44 43 42 41 41 38 36 36 36 34 33 34 33 32 31 29 28 26 27 29 28 27 28 28 29 28 27 28 27 27 27 25 26 27 27 28 27 30 31 29 29 28 27 28 27 26 27 26 26 27 28 27 27 25 25 26 25 23 23 23 23 23 23 23 23 23 23 23 22 20 21 22 20 17 18 19 20 20 19 19 19 19 18 17 16 15 15
46 45 44 43 42 42 40 37 36 36 34 33 33 33 32 30 29 27 26 28 29 28 28 27 27 27 26 27 28 27 27 27 27 26 25 26 27 27 29 31 31 30 29 31 31 27 26 26 26 27 28 27 25 24 23 25 26 24 22 22 21 21 21 21 22 22 22 23 24 22 20 20 22 21 19 19 20 21 20 19 19 20 18 17 17 16 15 16
46 46 45 44 43 43 41 39 38 36 34 33 33 32 31 30 30 28 28 30 30 29 29 28 28 27 26 27 28 27 27 26 25 25 25 26 27 27 28 28 29 30 29 30 31 28 26 25 26 26 26 25 23 21 22 23 23 22 22 21 20 20 20 20 21 21 22 24 25 23 22 21 22 21 20 19 19 19 18 17 18 18 18 17 16 16 16 17
47 46 46 45 44 43 42 41 40 37 35 34 33 32 31 30 30 30 30 31 31 30 30 29 28 28 28 28 27 28 27 26 25 26 26 27 27 29 28 27 27 28 28 30 30 28 27 26 26 26 25 24 23 22 22 22 22 22 22 21 19 19 19 20 21 20 22 24 22 21 21 22 23 21 19 18 17 17 17 17 18 17 17 17 16 17 17 18
47 47 46 47 45 44 43 41 39 38 36 35 34 33 32 30 31 33 33 29 29 31 31 30 30 29 30 29 27 27 27 27 27 28 29 28 29 30 29 28 27 26 27 28 28 27 28 28 27 25 25 25 24 23 22 22 23 23 22 20 19 18 18 20 20 20 22 21 18 17 18 21 24 23 20 17 15 15 15 15 17 18 17 17 17 17 18 19
47 46 46 47 46 45 44 41 39 38 37 37 36 34 33 31 33 37 36 31 29 29 29 29 30 30 30 30 29 27 28 28 29 29 30 30 29 30 30 30 29 27 25 25 25 25 25 26 26 25 25 26 26 25 24 23 23 23 22 20 20 19 18 20 20 20 21 19 17 16 17 20 22 22 21 18 15 14 14 14 16 17 17 17 18 18 19 20
46 46 46 46 46 45 43 41 39 38 38 38 37 35 34 34 36 37 37 36 32 30 29 28 27 28 30 30 29 28 28 29 29 29 29 29 29 29 30 30 30 29 25 24 24 24 24 23 23 24 23 24 26 27 25 23 23 24 23 22 22 21 20 19 18 19 18 15 15 16 16 19 18 17 17 17 15 15 15 15 16 17 18 18 18 19 20 21
46 46 46 47 47 46 44 43 41 39 38 38 37 37 37 38 38 37 36 36 34 32 30 29 27 28 30 30 29 29 28 28 28 28 28 29 29 28 29 29 29 28 27 25 24 23 25 24 22 21 20 21 23 24 24 22 22 23 23 23 23 22 20 19 17 17 16 15 16 17 18 18 17 15 15 16 17 17 17 17 17 18 18 18 19 20 21 21
43 44 45 46 47 47 46 44 42 41 40 37 36 39 40 39 37 35 34 34 33 32 31 30 29 29 30 30 29 29 28 27 27 27 27 28 29 30 29 29 29 29 28 27 24 23 24 23 22 21 21 21 21 22 23 22 21 21 23 24 22 19 19 19 18 17 17 19 18 18 19 19 18 18 17 17 18 18 18 19 19 19 19 19 20 21 22 22
41 41 42 44 45 46 47 46 43 43 42 39 39 39 39 39 37 35 34 32 32 32 31 31 31 30 31 30 29 29 27 27 27 27 27 27 28 30 31 30 29 31 30 28 27 26 25 23 22 22 22 21 20 21 22 23 22 21 22 23 20 19 20 20 20 19 19 21 20 18 21 21 20 20 19 19 20 21 20 20 20 20 20 20 21 21 22 23
41 41 41 42 43 43 45 46 44 43 42 40 41 41 38 37 36 35 34 32 31 31 32 33 32 30 31 30 29 28 27 27 28 27 27 27 27 28 29 29 29 31 31 30 28 27 26 25 23 22 22 20 20 22 23 24 24 23 22 21 20 21 22 22 21 20 20 21 21 20 22 23 23 22 20 21 22 22 22 21 20 21 21 21 21 22 23 23
37 39 40 42 42 42 42 43 42 42 41 40 41 40 38 37 36 35 35 33 32 32 33 33 31 30 30 30 28 27 28 28 28 28 28 27 26 26 26 25 26 28 29 29 29 27 26 26 24 22 22 20 21 24 25 25 24 23 23 23 22 22 22 22 22 21 20 21 22 21 21 22 24 24 23 24 24 22 21 20 21 21 22 22 22 22 23 24
34 33 36 39 41 41 41 40 40 40 40 41 40 38 37 36 36 36 36 34 33 33 33 33 32 31 30 29 28 28 29 30 30 29 29 28 26 26 26 25 25 25 26 27 28 27 26 26 25 22 22 22 23 26 27 26 25 25 26 25 25 24 22 22 24 23 22 22 23 23 23 23 23 23 23 24 24 22 20 20 21 22 22 22 23 23 24 25
33 30 31 35 37 39 39 38 37 37 38 39 39 38 36 35 34 35 36 35 34 33 32 32 32 31 31 30 30 28 29 30 31 30 30 30 29 27 25 25 24 23 23 26 28 28 26 27 26 25 24 26 25 25 25 26 26 28 29 28 28 27 25 24 24 25 24 24 24 24 26 24 22 22 22 22 22 21 20 20 21 21 22 23 23 24 25 26
32 31 30 32 35 37 37 36 36 35 36 37 37 37 36 35 34 34 34 35 34 33 32 33 33 32 31 31 30 29 29 29 30 31 31 31 31 29 26 25 24 23 24 25 26 27 26 27 28 26 26 27 26 25 25 26 27 29 30 30 28 28 28 27 25 24 24 26 25 25 27 26 24 23 22 21 21 21 21 21 21 22 23 23 23 24 25 27
32 31 31 32 35 37 36 34 35 35 35 35 35 35 34 34 34 34 34 34 34 33 33 34 34 34 33 32 31 30 30 30 31 32 31 31 31 29 28 28 27 26 27 26 26 26 26 27 28 27 26 26 26 27 27 27 28 30 32 31 30 30 30 29 27 24 24 26 25 25 28 28 25 24 24 23 23 22 22 22 22 23 23 23 24 25 26 27
34 32 32 34 36 38 36 35 36 37 35 33 34 34 33 33 34 35 34 34 33 32 33 33 33 33 33 32 32 32 32 31 32 33 33 33 32 30 29 30 30 29 29 28 27 27 28 28 28 26 25 26 27 28 29 29 30 32 32 32 32 32 29 28 28 27 28 29 27 27 29 27 25 26 26 26 25 24 24 25 25 24 23 24 25 26 27 27
35 34 34 36 37 38 37 35 34 36 37 36 36 36 34 33 34 34 34 34 33 31 32 32 31 31 31 31 32 33 33 33 33 33 33 34 33 31 30 31 31 31 30 28 28 28 29 30 29 28 28 28 28 27 29 30 31 32 32 32 34 34 31 30 30 29 32 31 29 30 31 26 25 27 27 27 27 26 26 26 26 25 25 25 26 27 28 28
37 37 36 36 38 38 37 35 34 35 36 37 37 37 37 36 34 33 34 34 33 32 31 30 30 30 30 31 33 34 34 34 32 32 33 33 32 31 30 30 31 31 30 29 29 29 30 32 33 35 35 32 29 29 28 28 30 33 34 33 34 35 34 32 32 32 32 30 31 36 33 28 28 29 28 28 28 28 28 27 27 27 27 27 28 29 29 30
39 39 38 37 37 38 37 36 36 36 37 37 36 36 38 38 35 33 34 33 33 33 31 30 30 31 32 32 33 34 34 33 32 32 34 33 32 31 31 31 31 31 30 30 31 30 30 34 36 38 38 34 31 31 30 30 31 34 35 35 35 35 35 36 37 37 33 30 34 35 32 32 33 30 30 30 29 30 30 29 28 29 29 29 30 30 30 31
40 39 40 39 38 38 39 39 38 38 38 38 37 35 37 38 37 35 34 33 32 33 31 31 33 34 33 32 31 31 31 32 32 33 33 32 31 31 31 31 31 31 31 31 32 31 32 36 36 37 38 36 33 33 32 31 31 31 33 36 36 36 37 39 41 39 35 35 36 32 30 34 34 31 30 31 30 31 30 29 29 29 30 31 31 31 32 32
41 39 40 41 40 39 40 40 38 38 39 39 38 37 38 39 39 37 34 32 33 34 33 34 35 35 34 33 31 31 31 31 32 33 31 30 31 31 32 32 32 32 31 31 32 32 33 35 35 34 37 36 34 34 34 32 31 32 33 34 35 37 38 40 41 39 36 38 39 35 33 35 34 32 31 30 30 30 29 29 30 30 31 32 32 32 33 33
41 41 40 40 40 40 41 39 38 38 39 38 38 38 38 40 40 38 36 35 35 34 35 36 36 34 34 34 34 35 35 33 32 31 30 30 30 30 31 31 30 30 31 31 32 32 32 34 33 32 35 35 34 34 34 33 33 33 34 35 36 37 37 37 38 37 37 39 39 36 36 36 34 32 30 29 30 30 30 32 33 33 33 33 33 34 34 34
42 42 41 40 39 40 40 40 40 40 39 39 39 38 38 39 39 37 36 37 37 36 37 39 37 33 33 35 37 37 35 32 31 30 29 30 30 30 30 30 29 30 31 31 31 31 32 32 31 31 33 34 33 33 33 33 32 33 36 38 37 36 35 35 37 36 37 39 38 36 38 37 33 30 30 31 32 33 34 35 34 33 33 34 34 35 35 35
43 42 41 41 40 40 39 39 40 41 40 39 39 37 37 38 37 35 35 35 36 36 36 37 35 33 33 36 38 37 33 30 30 29 29 30 29 28 30 30 30 30 31 31 31 31 32 32 31 31 31 31 31 31 31 30 30 33 38 39 37 36 36 35 36 37 37 37 36 37 38 35 32 32 33 34 34 35 35 35 34 34 35 36 37 37 37 38
Wind_Direction
208 208 208 207 207 207 208 208 209 210 210 211 213 215 217 219 223 226 229 234 237 241 246 250 255 259 262 265 268 271 274 272 268 268 266 264 264 259 256 256 254 253 252 255 258 261 262 260 264 268 268 269 273 274 271 275 275 270 268 266 268 268 270 272 267 268 264 257 262 270 280 280 278 281 285 286 277 279 288 286 289 297 296 293 292 296 297 298
211 211 211 210 210 210 211 212 212 213 214 215 217 220 223 226 229 232 236 239 243 246 250 254 257 260 263 265 268 271 272 270 266 264 266 267 263 257 254 251 249 249 252 258 260 262 264 264 265 268 270 269 273 274 270 274 274 272 271 268 273 276 273 276 274 271 269 268 271 273 280 281 282 288 291 287 280 282 286 279 275 283 288 293 297 298 297 297
214 214 214 213 213 214 214 215 216 217 218 220 222 225 228 231 234 237 240 243 246 249 253 256 258 261 263 265 268 270 271 269 262 258 264 265 259 252 248 245 245 248 255 263 265 265 267 268 266 268 270 269 272 273 270 273 274 272 271 271 275 275 270 272 273 274 277 277 276 276 280 281 280 285 287 286 285 283 284 286 280 279 288 294 295 295 293 293
216 216 217 216 216 217 218 219 220 221 222 224 226 229 231 234 237 240 243 246 248 251 254 256 259 261 263 266 268 269 271 268 259 256 260 259 253 248 244 244 246 250 259 266 267 267 266 264 264 268 269 268 269 270 271 275 276 272 272 276 275 272 269 267 270 273 277 279 279 279 279 277 277 282 282 281 281 279 283 294 289 287 292 291 290 289 288 289
219 219 219 219 220 220 221 222 224 225 226 228 230 232 234 237 240 243 245 248 251 253 256 258 261 262 264 266 267 268 269 265 257 255 256 254 250 247 246 247 250 256 261 263 266 266 263 261 263 265 267 267 267 268 270 275 277 272 271 275 273 273 273 268 270 273 275 278 278 277 277 279 278 278 276 274 277 278 283 288 286 285 285 284 284 283 283 286
222 222 222 222 223 224 225 226 227 228 229 231 233 235 237 240 242 245 248 250 253 255 257 260 262 263 265 266 265 265 264 261 256 256 255 253 251 249 249 251 255 260 261 263 265 264 262 261 261 263 267 269 268 271 273 273 275 274 269 270 272 274 274 272 270 270 273 275 275 276 278 281 278 275 271 271 276 278 281 283 283 281 279 279 279 280 281 282
224 224 225 225 226 227 228 229 230 231 232 234 236 238 240 243 245 247 250 252 254 257 259 261 263 265 266 266 264 261 259 258 257 256 255 254 253 251 252 254 258 260 260 262 262 262 262 261 263 266 268 269 269 272 273 271 271 273 271 268 271 273 273 275 272 270 271 272 274 276 278 276 273 273 270 268 274 275 277 280 280 279 277 277 277 279 280 280
227 227 227 227 228 229 230 231 232 233 235 236 238 240 242 244 247 249 251 253 255 257 259 262 263 265 266 264 263 261 257 257 256 256 255 255 254 253 255 256 258 259 260 260 261 263 263 262 265 266 268 270 272 271 272 272 267 268 273 272 272 273 272 274 273 272 271 272 273 273 273 272 270 272 269 267 272 272 273 276 276 277 277 276 277 278 277 277
229 229 229 229 230 231 232 233 234 235 236 238 240 241 244 246 248 250 252 254 256 258 260 262 264 265 264 262 261 261 259 257 257 256 255 255 254 254 255 256 257 259 260 261 262 262 262 264 265 267 272 273 272 272 271 272 271 271 276 275 274 274 273 274 274 274 273 272 272 270 271 270 268 268 268 269 270 270 271 273 273 274 275 275 275 275 275 276
230 230 231 231 231 233 234 235 236 237 238 240 241 243 245 247 249 251 252 254 256 258 260 261 263 263 262 260 258 260 259 257 257 257 255 255 254 254 255 257 258 259 260 261 261 260 262 265 266 267 272 272 270 272 270 271 275 277 277 277 275 275 274 273 273 274 274 272 269 269 271 269 264 265 269 269 267 269 270 271 271 272 273 273 272 272 273 275
231 231 232 233 233 234 235 236 237 238 239 241 242 244 246 248 249 251 253 255 256 258 260 261 262 261 260 259 257 258 258 257 257 256 255 255 254 255 256 257 258 259 260 261 260 261 263 264 265 266 270 270 268 269 270 272 276 277 278 278 274 273 273 270 270 272 273 272 268 268 270 268 263 266 270 266 264 266 268 269 270 270 270 270 270 270 272 275
232 232 233 234 234 235 237 237 239 239 240 242 243 245 246 248 250 252 253 255 256 258 259 260 260 259 259 258 257 258 258 257 257 256 256 256 256 257 258 259 259 260 261 262 261 262 264 264 262 265 270 272 270 270 271 272 275 276 276 277 277 275 272 269 269 271 270 270 268 267 270 266 261 265 269 263 262 264 265 267 267 268 269 269 269 271 272 276
233 233 234 234 234 235 238 238 240 240 241 242 244 246 247 249 250 252 254 255 256 257 259 260 260 259 259 258 257 257 257 257 256 256 255 255 257 258 259 260 260 261 262 264 263 261 263 264 263 266 270 272 271 273 273 271 273 275 274 275 279 278 273 268 268 269 268 269 265 266 274 269 260 264 266 263 262 263 264 266 266 267 268 268 269 271 273 276
233 234 235 234 234 236 238 239 240 241 242 243 245 247 248 249 251 253 254 255 256 257 258 259 259 258 257 258 257 257 256 256 256 255 255 255 257 259 259 260 261 261 262 263 262 261 262 263 264 266 268 271 272 271 272 270 271 274 275 274 275 276 273 266 265 265 266 267 262 266 275 273 264 265 267 266 264 263 264 265 266 266 266 268 269 270 272 274
234 235 235 235 235 236 238 239 241 242 242 243 245 248 249 250 252 253 253 254 255 256 258 258 257 257 258 257 257 257 256 255 255 254 255 256 257 258 258 259 261 261 261 261 260 260 262 262 264 266 267 269 269 270 272 272 271 272 273 273 270 271 270 265 264 266 269 269 262 265 274 274 266 265 268 268 264 263 265 265 265 266 265 267 268 269 271 271
235 235 235 235 235 236 238 239 241 242 243 244 246 248 249 251 252 252 253 254 255 255 256 256 255 256 259 258 256 257 256 255 255 255 255 255 256 257 257 258 259 259 259 260 260 260 262 263 265 268 268 267 267 269 272 272 271 269 269 271 269 268 269 268 267 268 271 270 263 263 272 276 271 266 268 269 265 263 265 265 264 265 265 266 266 267 268 269
235 235 236 236 236 236 238 240 242 243 243 244 246 249 249 250 251 251 252 253 254 254 255 255 255 256 257 257 257 257 256 255 254 255 254 254 256 254 254 256 257 257 258 259 260 261 261 263 266 267 266 266 267 268 268 267 269 267 266 268 269 268 268 270 270 267 267 268 267 265 269 275 271 265 267 268 265 264 265 264 263 264 264 265 266 266 267 268
235 236 237 237 237 238 239 240 243 243 243 245 247 248 249 250 251 251 251 251 252 253 254 254 253 256 256 254 255 256 255 255 253 253 253 253 253 253 253 256 255 255 256 259 261 260 261 263 265 266 265 265 264 262 261 264 269 271 268 269 270 268 267 269 270 266 264 267 269 268 269 272 270 265 267 267 264 264 265 264 263 263 263 264 264 264 264 264
235 236 237 237 237 238 240 241 243 242 243 245 246 247 249 250 251 252 251 251 250 251 254 251 248 254 257 254 254 255 254 254 252 252 251 251 252 252 254 256 255 255 257 260 260 258 261 263 262 263 265 263 261 259 261 265 271 273 272 272 273 271 269 270 270 267 268 269 269 270 270 272 270 266 266 266 265 265 264 263 262 262 262 261 261 260 259 258
235 236 237 237 237 239 240 241 242 242 243 245 245 246 248 249 251 252 250 250 250 251 255 252 247 252 257 254 253 253 252 252 252 251 250 250 250 250 253 255 255 257 259 260 260 259 261 261 260 262 264 263 261 259 262 266 270 272 272 272 271 270 271 272 270 268 271 272 270 271 271 271 271 267 264 264 264 263 262 260 260 259 258 257 255 254 254 254
235 236 237 237 237 238 239 241 241 242 243 245 244 246 248 250 251 253 252 251 251 251 253 252 250 253 254 253 251 250 251 251 251 250 249 249 247 249 251 252 256 259 259 259 261 264 262 260 261 262 263 264 263 260 261 265 267 269 270 271 270 269 271 271 270 269 271 272 273 273 272 271 272 267 262 261 262 261 259 257 257 254 253 253 251 250 251 254
235 236 237 237 237 237 239 241 240 241 243 244 244 246 250 251 251 254 256 255 253 250 251 252 251 252 252 251 249 249 250 250 249 248 247 247 247 251 253 252 257 261 259 259 263 265 263 262 263 263 263 265 266 264 263 264 266 267 268 269 269 270 272 271 269 270 271 272 274 273 271 272 271 265 260 259 259 259 259 258 256 252 250 250 250 250 251 253
236 236 237 237 236 238 240 240 240 241 242 243 244 246 249 251 251 254 256 257 256 250 248 249 249 250 249 249 248 247 248 248 249 246 244 246 248 253 255 254 258 261 258 257 260 263 264 265 263 261 262 263 264 263 263 265 266 266 266 267 268 270 272 272 271 271 270 271 274 275 272 272 269 263 261 260 258 258 257 257 256 253 251 250 249 250 251 252
236 237 237 237 236 238 240 240 240 241 243 243 245 246 248 250 251 254 255 257 257 251 247 248 249 248 247 248 247 244 247 249 251 247 243 245 249 253 256 256 259 260 259 257 258 261 264 269 266 259 260 261 262 262 260 264 266 265 264 265 268 270 269 271 272 272 271 270 271 273 273 271 265 261 261 260 258 256 253 251 252 250 250 250 249 250 251 253
236 236 236 236 237 239 239 239 241 242 243 244 246 246 247 249 251 254 256 257 256 251 249 249 249 248 246 246 245 245 250 251 251 250 245 245 249 254 257 258 259 260 260 258 260 263 264 266 264 259 260 260 260 262 260 262 267 267 264 263 267 270 270 270 271 273 274 270 266 267 270 272 265 257 257 257 254 252 249 248 248 246 246 248 249 250 250 251
236 236 235 235 237 237 237 241 242 242 242 244 246 244 244 246 249 252 254 258 257 252 249 248 247 248 247 245 243 247 254 254 252 251 248 248 251 255 258 258 260 262 261 260 263 266 264 263 263 260 260 259 259 262 260 261 266 268 267 266 267 270 270 268 268 268 270 270 267 263 265 270 268 258 255 253 249 247 246 246 244 243 245 246 248 249 248 248
235 236 235 235 236 235 237 242 241 240 242 244 244 242 242 243 246 250 253 257 257 251 248 248 247 248 249 246 241 244 254 254 252 252 250 250 251 255 258 257 259 262 262 262 263 265 262 260 262 260 259 259 259 261 261 259 263 266 269 271 269 269 268 266 264 264 266 270 267 260 261 267 267 261 255 249 247 245 243 243 244 244 244 244 244 245 244 245
235 235 235 234 234 233 237 241 239 238 242 244 241 239 239 240 243 247 250 253 254 250 249 249 248 249 249 247 243 246 254 255 254 255 252 252 252 255 256 256 258 259 257 258 261 265 264 259 259 258 259 260 260 263 261 257 261 265 269 272 271 270 268 264 263 263 264 267 265 258 256 263 264 259 254 251 250 249 245 243 243 242 241 240 240 241 242 245
235 234 234 233 233 233 236 240 238 239 241 242 239 237 236 238 241 246 248 250 252 252 252 249 246 248 246 246 247 250 255 256 258 258 254 252 253 256 258 257 259 259 255 256 260 265 266 264 263 260 259 260 261 266 265 260 262 264 266 269 270 270 267 263 263 263 263 263 262 257 252 259 265 259 252 252 253 252 248 244 242 238 236 235 235 238 242 247
234 234 233 232 233 234 236 239 239 239 240 239 238 235 234 238 241 243 244 248 252 253 253 249 248 247 243 244 249 250 252 255 257 255 253 254 253 256 261 260 259 259 257 258 260 262 264 266 266 263 262 262 261 266 268 265 262 260 262 265 266 266 264 262 262 262 263 262 260 256 250 254 265 261 251 250 253 253 248 242 238 233 230 232 236 240 245 248
234 234 233 233 235 235 236 239 238 238 238 237 234 232 234 240 241 240 243 249 253 252 251 250 249 246 241 244 249 249 250 254 252 250 253 255 253 254 257 257 257 258 259 259 260 260 260 261 263 262 263 262 259 261 264 264 261 259 260 260 261 263 262 261 261 259 262 264 262 257 250 250 258 260 254 251 250 249 245 237 230 228 229 234 240 245 247 250
233 233 233 233 235 235 235 238 237 235 235 233 231 231 235 239 239 239 243 248 251 249 248 249 248 247 244 247 251 249 249 253 251 251 253 254 253 253 252 253 252 254 259 258 257 259 259 258 258 261 262 258 255 257 259 260 258 256 255 252 254 259 260 259 258 257 260 264 264 257 251 252 257 257 255 252 247 242 243 239 231 228 232 237 244 249 250 251
232 232 232 232 233 234 235 236 234 233 233 230 230 233 236 237 239 240 241 244 249 251 251 251 249 248 246 248 251 249 250 253 250 251 253 252 252 252 250 251 249 252 260 258 254 256 259 259 255 257 261 256 251 251 253 254 251 248 247 244 247 253 257 258 257 258 260 262 262 255 253 259 261 258 254 252 249 243 243 246 239 234 237 243 247 249 250 251
232 232 232 232 232 233 233 233 233 231 230 228 230 233 233 236 242 242 241 243 247 251 252 252 248 247 247 249 251 248 250 253 249 250 252 249 250 250 248 248 247 250 256 257 255 253 256 261 256 254 258 252 248 250 251 250 247 246 246 244 246 248 254 259 259 258 260 263 259 253 254 259 260 262 259 253 250 247 247 251 249 245 246 249 250 250 250 251
232 232 233 232 232 232 232 231 230 228 227 227 231 232 231 237 242 242 242 243 244 247 249 249 247 247 248 250 251 248 250 253 247 247 249 246 248 249 247 247 247 248 249 252 256 253 254 262 259 258 260 248 245 250 248 245 247 248 247 244 246 249 253 260 263 262 263 266 259 252 257 262 261 265 263 252 246 247 251 254 254 253 252 253 254 253 252 252
231 231 232 232 231 231 230 230 229 227 226 228 232 232 233 239 242 242 243 243 242 242 243 245 246 246 247 249 251 249 251 253 245 244 248 247 248 249 249 250 247 246 246 248 253 254 256 263 261 260 260 250 249 252 246 246 249 247 243 243 246 250 252 256 260 260 263 266 261 253 258 264 264 263 259 252 250 249 252 255 255 256 256 255 257 255 253 253
228 229 229 230 230 228 227 227 227 226 227 230 233 234 237 241 241 241 243 243 242 239 240 244 245 246 247 249 251 248 248 249 244 244 247 246 250 251 249 252 248 245 246 247 253 255 256 262 260 256 256 254 258 256 250 251 250 245 244 245 246 250 252 254 258 259 257 262 263 255 256 260 260 262 259 254 254 252 253 256 257 258 258 258 258 255 254 254
227 228 229 228 227 227 226 225 225 225 229 232 233 235 238 240 239 239 240 241 241 239 241 245 245 246 248 249 251 248 246 246 243 244 246 247 253 251 247 251 250 245 244 246 252 254 253 257 258 255 254 254 255 253 249 248 248 249 251 248 245 247 248 246 251 257 255 259 265 261 258 260 259 261 259 255 254 253 253 256 257 258 258 258 258 257 256 256
227 229 230 228 225 224 223 223 223 225 229 231 232 234 237 239 238 237 238 240 241 240 242 244 245 247 249 249 251 250 247 246 243 245 247 247 252 250 245 249 251 247 243 244 250 251 249 252 255 255 255 252 250 248 245 244 244 248 251 249 246 249 250 245 247 254 257 259 266 266 265 266 263 260 256 254 254 254 253 256 258 258 257 258 258 258 257 257
228 229 231 227 222 221 221 221 223 226 229 231 232 234 236 237 237 235 236 238 241 242 243 244 244 246 248 249 251 250 248 248 246 247 248 247 250 251 248 249 251 250 246 244 248 249 247 248 252 255 253 249 249 247 245 243 242 242 243 244 244 244 248 251 250 252 257 262 267 269 270 272 270 265 258 253 253 253 255 258 260 260 258 258 258 258 258 257
227 230 230 223 219 217 216 219 224 227 230 232 233 235 235 236 236 234 234 237 241 244 245 246 245 246 247 248 250 249 249 250 249 249 249 248 249 252 253 255 254 250 247 247 246 245 246 247 249 251 250 248 250 252 251 249 246 244 243 243 243 242 243 250 253 253 257 263 267 270 273 274 273 272 267 259 255 256 258 260 261 260 259 259 260 259 258 257
224 228 227 221 218 215 214 221 226 227 229 231 232 233 234 235 236 235 235 237 240 243 244 245 245 246 246 247 248 248 247 249 249 248 249 249 249 252 254 257 255 247 246 251 251 249 249 249 249 251 253 252 254 255 254 253 252 250 248 246 245 244 242 246 255 258 258 261 267 272 274 274 274 273 271 268 267 267 265 261 260 262 262 262 263 262 260 260
225 227 225 221 218 215 217 224 226 226 229 231 231 231 232 235 236 235 236 237 238 240 242 243 243 244 246 246 248 247 246 248 248 247 250 252 252 253 254 254 252 247 248 253 254 251 250 248 248 252 257 257 256 255 254 252 251 250 250 248 246 245 245 248 257 262 259 259 262 267 269 271 272 270 268 270 273 275 272 266 263 266 268 267 266 264 264 264
225 227 225 223 220 218 222 226 225 226 229 229 228 228 231 236 236 234 234 235 237 239 241 243 243 244 246 246 246 246 246 248 249 249 251 252 253 254 254 254 252 250 251 255 254 250 248 247 247 250 256 256 254 254 252 250 249 249 249 247 246 247 248 251 256 260 261 259 257 260 266 268 268 268 268 270 272 272 271 268 268 271 272 270 268 267 268 268
226 227 227 225 223 224 228 230 228 228 229 228 227 228 231 237 237 236 235 234 237 240 241 244 245 245 247 246 247 247 245 247 251 251 252 253 254 255 255 254 254 254 255 257 256 252 250 249 246 246 249 251 252 255 255 252 249 250 250 247 246 247 247 251 254 255 260 260 255 257 265 267 267 268 268 268 269 269 269 268 270 274 273 271 270 270 271 271
227 228 228 227 227 228 232 233 231 230 229 229 230 230 231 234 238 238 236 234 236 239 241 245 245 245 246 246 246 247 245 246 250 252 252 253 254 255 255 254 255 256 256 256 256 255 254 252 248 247 248 251 254 259 261 257 251 249 248 246 247 247 247 249 250 252 257 261 259 260 262 264 265 266 266 265 266 268 268 268 271 273 273 272 273 273 272 272
230 229 227 227 229 230 232 233 231 231 230 229 231 232 231 232 235 237 237 237 237 238 242 245 244 242 244 244 245 246 245 245 249 252 253 252 253 255 255 255 256 256 256 255 254 254 255 254 251 250 251 253 256 259 263 260 254 250 248 247 248 248 247 246 248 252 256 260 262 263 261 261 263 263 263 264 265 267 268 269 271 272 271 273 274 273 272 271
231 231 229 228 230 230 231 232 232 233 232 230 232 234 232 232 233 234 236 238 238 236 239 243 243 241 242 243 244 245 244 245 248 251 252 252 253 254 255 256 256 255 255 255 254 254 254 254 253 252 252 253 255 258 261 261 259 256 251 249 249 248 246 245 248 253 255 257 262 265 261 261 263 262 260 261 261 264 266 268 270 270 270 271 271 271 270 269
231 233 232 231 233 232 231 231 232 233 233 232 233 235 233 233 233 234 235 237 239 238 238 241 242 241 242 243 244 244 244 245 248 250 251 252 252 252 253 255 255 255 255 255 255 255 254 253 253 252 252 253 254 256 258 259 260 260 256 252 251 249 248 248 251 253 254 257 262 265 264 264 264 261 260 260 261 264 266 267 268 269 270 269 269 269 269 268
231 233 233 233 235 235 233 232 232 233 234 234 234 235 235 234 234 235 236 236 237 240 240 242 244 243 243 244 244 245 246 246 249 250 248 249 251 251 252 253 254 255 255 255 255 255 253 253 252 252 253 253 253 254 256 257 259 259 258 256 253 251 251 251 252 253 254 257 260 262 263 264 263 261 261 262 263 265 266 267 268 270 270 269 268 268 268 268
232 233 234 234 236 235 234 234 234 235 236 235 236 236 236 236 234 235 238 239 239 241 242 243 245 245 244 244 243 246 247 246 248 249 246 247 251 251 252 253 253 253 254 254 254 253 252 252 252 251 252 254 254 253 253 256 258 258 257 256 253 251 251 252 253 253 253 255 258 258 259 262 262 261 262 262 263 265 266 267 269 269 269 267 267 268 269 270
232 233 234 235 236 235 235 236 236 236 237 237 237 237 237 238 236 235 239 242 242 243 244 243 243 244 245 244 244 246 246 245 247 248 247 250 252 253 253 253 252 253 252 252 253 252 250 250 251 251 252 255 256 254 252 254 256 256 257 255 251 251 252 253 254 254 253 254 256 256 258 261 261 261 262 264 264 265 266 267 267 267 267 267 268 270 271 272